DW9686 Weather Reports


time (UTC)temp
F
wind
direction
speed
knots
gust
knots
rain 1hr
in
rain 24hr
in
rain mn
in
humidity
%
barometer
mb
20260903033039 59 192 2.6 6.1 0.01 0.01 0.01 87 1008.1
20260903031537 59 208 1.7 3.5 0.01 0.01 0.01 85 1008.0
20260903030043 59 208 1.7 4.3 0.01 0.01 0.01 83 1007.8
20260903024543 59 209 3.5 8.7 0.01 0.01 0.01 82 1007.9
20260903023038 60 219 5.2 10.4 0.00 0.00 0.00 79 1007.9
20260903021541 61 217 5.2 8.7 0.00 0.00 0.00 77 1007.8
20260903020041 61 209 5.2 8.7 0.00 0.00 0.00 75 1007.8
20260903014542 62 216 6.1 11.3 0.00 0.00 0.00 74 1007.7
20260903013042 62 225 7.0 13.9 0.00 0.00 0.00 73 1007.7
20260903011547 62 229 6.1 10.4 0.00 0.00 0.00 73 1007.7
20260903010043 62 215 7.8 13.9 0.00 0.00 0.00 71 1007.7
20260903004536 62 197 6.1 13.9 0.00 0.00 0.00 73 1007.4
20260903003036 63 238 7.8 16.5 0.00 0.00 0.00 69 1007.5
20260903001556 65 222 7.8 14.8 0.00 0.00 0.00 64 1007.3
20260903000037 65 228 8.7 20.9 0.00 0.00 0.00 62 1007.0
20260902234537 66 238 11.3 16.5 0.00 0.00 0.00 62 1006.9
20260902233039 66 232 10.4 15.6 0.00 0.00 0.00 65 1006.9
20260902231539 65 232 10.4 22.6 0.00 0.00 0.00 66 1006.8
20260902230039 65 245 11.3 24.3 0.00 0.00 0.00 66 1006.9
20260902224542 67 207 15.6 26.1 0.00 0.00 0.00 64 1006.8
20260902223040 73 169 3.5 6.1 0.00 0.00 0.00 54 1005.8
20260902221544 74 169 3.5 7.8 0.00 0.00 0.00 49 1005.7
20260902220050 74 158 0.9 5.2 0.00 0.00 0.00 50 1005.8
20260902214540 74 158 3.5 7.0 0.00 0.00 0.00 45 1005.8
20260902213046 75 164 5.2 9.6 0.00 0.00 0.00 45 1006.0
20260902211541 75 175 4.3 7.8 0.00 0.00 0.00 48 1006.0
20260902210039 74 166 6.1 10.4 0.00 0.00 0.00 47 1006.2
20260902204538 74 203 4.3 8.7 0.00 0.00 0.00 48 1006.4
20260902203042 73 249 4.3 8.7 0.00 0.00 0.00 51 1006.5
20260902201539 73 221 2.6 9.6 0.00 0.00 0.00 51 1006.6
20260902200039 72 217 4.3 13.0 0.00 0.00 0.00 51 1006.8
20260902194543 72 205 7.0 13.0 0.00 0.00 0.00 53 1007.1
20260902193038 72 205 7.8 13.9 0.00 0.00 0.00 51 1007.2
20260902191550 71 205 7.8 13.9 0.00 0.00 0.00 56 1007.3
20260902190052 70 205 6.1 10.4 0.00 0.00 0.00 57 1007.6
20260902184539 69 211 6.1 12.2 0.00 0.00 0.00 59 1007.7
20260902183041 69 200 7.0 12.2 0.00 0.00 0.00 57 1007.9
20260902181537 68 216 7.0 13.0 0.00 0.00 0.00 60 1008.1
20260902180042 67 194 7.0 12.2 0.00 0.00 0.00 64 1008.1
20260902174537 66 200 7.0 11.3 0.00 0.00 0.00 65 1008.0
20260902173041 66 196 7.0 10.4 0.00 0.00 0.00 66 1008.1
20260902171600 65 187 4.3 10.4 0.00 0.00 0.00 67 1008.1
20260902170103 64 201 6.1 9.6 0.00 0.00 0.00 68 1008.0
20260902164541 64 193 5.2 9.6 0.00 0.00 0.00 68 1008.2
20260902163036 63 209 7.0 11.3 0.00 0.00 0.00 71 1008.2
20260902161544 63 221 5.2 10.4 0.00 0.00 0.00 74 1008.2
20260902160042 61 217 7.0 9.6 0.00 0.00 0.00 78 1008.3
20260902154537 60 205 8.7 13.0 0.00 0.00 0.00 78 1008.5
20260902153037 59 196 7.0 10.4 0.00 0.00 0.00 82 1008.4
20260902151536 58 203 4.3 7.8 0.00 0.00 0.00 83 1008.3
20260902150040 56 203 1.7 4.3 0.00 0.00 0.00 86 1008.4
20260902144538 56 203 3.5 5.2 0.00 0.00 0.00 84 1008.4
20260902143039 56 203 0.9 3.5 0.00 0.00 0.00 84 1008.3
20260902141546 56 203 3.5 7.0 0.00 0.00 0.00 84 1008.1
20260902140036 55 203 0.9 3.5 0.00 0.00 0.00 84 1008.2
20260902134544 56 203 2.6 6.1 0.00 0.00 0.00 83 1007.7
20260902133039 56 203 4.3 7.0 0.00 0.00 0.00 83 1007.6
20260902131535 56 203 3.5 7.0 0.00 0.00 0.00 83 1007.3
20260902130038 57 203 4.3 8.7 0.00 0.00 0.00 82 1007.2
20260902124539 57 202 6.1 8.7 0.00 0.00 0.00 82 1007.1
20260902123037 57 202 5.2 8.7 0.00 0.00 0.00 83 1007.2
20260902121540 57 198 6.1 8.7 0.00 0.00 0.00 80 1007.1
20260902120039 58 193 5.2 8.7 0.00 0.00 0.00 80 1007.3
20260902114540 58 192 6.1 11.3 0.00 0.00 0.00 80 1007.6
20260902113037 57 190 5.2 8.7 0.00 0.00 0.00 82 1007.7
20260902111538 56 190 2.6 5.2 0.00 0.00 0.00 80 1007.3
20260902110038 57 190 2.6 6.1 0.00 0.00 0.00 79 1007.1
20260902104542 57 190 4.3 7.0 0.00 0.00 0.00 78 1006.9
20260902103036 56 183 4.3 7.8 0.00 0.00 0.00 79 1006.8
20260902101533 56 183 1.7 3.5 0.00 0.00 0.00 79 1006.8
20260902100040 56 183 2.6 4.3 0.00 0.00 0.00 79 1007.0
20260902094537 56 183 2.6 4.3 0.00 0.00 0.00 78 1006.6
20260902093040 57 183 3.5 5.2 0.00 0.00 0.00 77 1006.7
20260902091538 58 183 2.6 3.5 0.00 0.00 0.00 77 1006.7
20260902090037 59 183 0.9 2.6 0.00 0.00 0.00 75 1006.9
20260902084541 61 183 0.9 3.5 0.00 0.00 0.00 71 1006.8
20260902083039 62 183 1.7 3.5 0.00 0.00 0.00 71 1006.5
20260902081538 61 183 1.7 3.5 0.00 0.00 0.00 73 1006.6
20260902080039 61 183 2.6 4.3 0.00 0.00 0.00 73 1006.4
20260902074547 61 183 2.6 5.2 0.00 0.00 0.00 73 1006.4
20260902073037 61 183 3.5 5.2 0.00 0.00 0.00 73 1006.2
20260902071538 63 183 1.7 3.5 0.00 0.00 0.00 69 1006.2
20260902070039 64 183 1.7 2.6 0.00 0.00 0.00 69 1006.1
20260902064536 65 183 1.7 3.5 0.00 0.00 0.00 67 1006.0
20260902063059 64 183 6.1 9.6 0.00 0.00 0.00 70 1005.8
20260902061536 63 147 2.6 7.8 0.00 0.00 0.00 70 1005.7
20260902060052 64 125 2.6 7.0 0.00 0.00 0.00 68 1005.4
20260902054539 64 121 2.6 7.0 0.00 0.00 0.00 68 1005.4
20260902053035 65 121 3.5 7.0 0.00 0.00 0.00 67 1005.2
20260902051544 64 120 2.6 7.0 0.00 0.00 0.00 68 1005.1
20260902050035 64 120 0.0 3.5 0.00 0.00 0.00 67 1004.9
20260902044540 65 120 1.7 5.2 0.00 0.00 0.00 64 1004.8
20260902043100 66 120 1.7 3.5 0.00 0.00 0.00 63 1004.8
20260902041554 67 120 1.7 2.6 0.00 0.00 0.00 62 1004.7
20260902040041 68 120 1.7 5.2 0.00 0.00 0.00 62 1004.6
20260902034546 70 120 1.7 3.5 0.00 0.00 0.00 61 1004.5